15-06-2022, 00:00:07,    150,    0.0,   13.0,   0.00,   0.00, 1014.7,   67.5, -999.0
15-06-2022, 00:00:16,    152,    0.0,   12.9,   0.00,   0.00, 1014.7,   67.6, -999.0
15-06-2022, 00:00:26,    152,    0.0,   12.9,   0.00,   0.00, 1014.8,   67.7, -999.0
15-06-2022, 00:00:36,    152,    0.0,   13.0,   0.00,   0.00, 1014.7,   67.6, -999.0
15-06-2022, 00:00:46,    152,    0.0,   13.0,   0.00,   0.00, 1014.8,   67.6, -999.0
15-06-2022, 00:00:56,    151,    0.0,   12.9,   0.00,   0.00, 1014.7,   67.6, -999.0
15-06-2022, 00:01:06,    151,    0.0,   12.9,   0.00,   0.00, 1014.7,   67.7, -999.0
15-06-2022, 00:01:16,    152,    0.0,   12.9,   0.00,   0.00, 1014.7,   67.6, -999.0
15-06-2022, 00:01:26,    152,    0.0,   12.9,   0.00,   0.00, 1014.7,   67.7, -999.0
15-06-2022, 00:01:36,    152,    0.0,   12.9,   0.00,   0.00, 1014.7,   67.6, -999.0
15-06-2022, 00:01:46,    152,    0.0,   12.9,   0.00,   0.00, 1014.7,   67.7, -999.0
15-06-2022, 00:01:56,    152,    0.0,   12.9,   0.00,   0.00, 1014.7,   67.7, -999.0
15-06-2022, 00:02:06,    152,    0.0,   12.8,   0.00,   0.00, 1014.7,   67.7, -999.0
15-06-2022, 00:02:16,    151,    0.0,   12.8,   0.00,   0.00, 1014.7,   67.8, -999.0
15-06-2022, 00:02:26,    151,    0.0,   12.9,   0.00,   0.00, 1014.7,   67.7, -999.0
15-06-2022, 00:02:36,    151,    0.0,   12.8,   0.00,   0.00, 1014.7,   67.8, -999.0
15-06-2022, 00:02:46,    151,    0.0,   12.9,   0.00,   0.00, 1014.7,   67.7, -999.0
15-06-2022, 00:02:55,    152,    0.0,   12.8,   0.00,   0.00, 1014.7,   67.8, -999.0
15-06-2022, 00:03:06,    151,    0.0,   12.8,   0.00,   0.00, 1014.7,   67.9, -999.0
15-06-2022, 00:03:16,    151,    0.0,   12.9,   0.00,   0.00, 1014.7,   67.9, -999.0
15-06-2022, 00:03:25,    151,    0.0,   12.8,   0.00,   0.00, 1014.8,   68.0, -999.0
15-06-2022, 00:03:36,    151,    0.0,   12.8,   0.00,   0.00, 1014.7,   68.1, -999.0
15-06-2022, 00:03:45,    151,    0.0,   12.7,   0.00,   0.00, 1014.7,   68.1, -999.0
15-06-2022, 00:03:55,    155,    0.0,   12.9,   0.00,   0.00, 1014.7,   68.2, -999.0
15-06-2022, 00:04:05,    156,    0.0,   12.8,   0.00,   0.00, 1014.7,   68.1, -999.0
15-06-2022, 00:04:15,    155,    0.0,   12.8,   0.00,   0.00, 1014.7,   68.2, -999.0
15-06-2022, 00:04:25,    154,    0.0,   12.8,   0.00,   0.00, 1014.7,   68.3, -999.0
15-06-2022, 00:04:35,    155,    0.0,   12.8,   0.00,   0.00, 1014.7,   68.4, -999.0
15-06-2022, 00:04:45,    155,    0.0,   12.8,   0.00,   0.00, 1014.8,   68.3, -999.0
15-06-2022, 00:04:55,    155,    0.0,   12.8,   0.00,   0.00, 1014.7,   68.4, -999.0
15-06-2022, 00:05:05,    160,    0.0,   12.7,   0.00,   0.00, 1014.7,   68.4, -999.0
15-06-2022, 00:05:15,    157,    0.0,   12.7,   0.00,   0.00, 1014.7,   68.4, -999.0
15-06-2022, 00:05:25,    156,    0.0,   12.7,   0.00,   0.00, 1014.7,   68.5, -999.0
15-06-2022, 00:05:35,    157,    0.0,   12.6,   0.00,   0.00, 1014.8,   68.7, -999.0
15-06-2022, 00:05:45,    156,    0.0,   12.6,   0.00,   0.00, 1014.7,   68.6, -999.0
15-06-2022, 00:05:55,    157,    0.0,   12.6,   0.00,   0.00, 1014.7,   68.6, -999.0
15-06-2022, 00:06:05,    157,    0.0,   12.7,   0.00,   0.00, 1014.7,   68.8, -999.0
15-06-2022, 00:06:15,    156,    0.0,   12.7,   0.00,   0.00, 1014.7,   69.0, -999.0
15-06-2022, 00:06:24,    157,    0.0,   12.7,   0.00,   0.00, 1014.7,   68.9, -999.0
15-06-2022, 00:06:34,    156,    0.0,   12.7,   0.00,   0.00, 1014.7,   68.9, -999.0
15-06-2022, 00:06:45,    157,    0.0,   12.7,   0.00,   0.00, 1014.7,   68.9, -999.0
15-06-2022, 00:06:54,    157,    0.0,   12.7,   0.00,   0.00, 1014.7,   68.9, -999.0
15-06-2022, 00:07:04,    156,    0.0,   12.7,   0.00,   0.00, 1014.7,   68.9, -999.0
15-06-2022, 00:07:14,    157,    0.0,   12.6,   0.00,   0.00, 1014.8,   68.9, -999.0
15-06-2022, 00:07:24,    157,    0.0,   12.7,   0.00,   0.00, 1014.7,   68.9, -999.0
15-06-2022, 00:07:34,    157,    0.0,   12.7,   0.00,   0.00, 1014.7,   68.9, -999.0
15-06-2022, 00:07:44,    156,    0.0,   12.7,   0.00,   0.00, 1014.7,   68.9, -999.0
15-06-2022, 00:07:54,    156,    0.0,   12.7,   0.00,   0.00, 1014.7,   68.9, -999.0
15-06-2022, 00:08:04,    157,    0.0,   12.6,   0.00,   0.00, 1014.7,   68.8, -999.0
15-06-2022, 00:08:14,    156,    0.0,   12.8,   0.00,   0.00, 1014.7,   69.0, -999.0
15-06-2022, 00:08:24,    156,    0.0,   12.6,   0.00,   0.00, 1014.8,   68.9, -999.0
15-06-2022, 00:08:34,    157,    0.0,   12.6,   0.00,   0.00, 1014.8,   69.0, -999.0
15-06-2022, 00:08:44,    157,    0.0,   12.6,   0.00,   0.00, 1014.8,   69.0, -999.0
15-06-2022, 00:08:54,    156,    0.0,   12.6,   0.00,   0.00, 1014.7,   69.0, -999.0
15-06-2022, 00:09:04,    156,    0.0,   12.7,   0.00,   0.00, 1014.8,   69.2, -999.0
15-06-2022, 00:09:14,    156,    0.0,   12.7,   0.00,   0.00, 1014.8,   69.2, -999.0
15-06-2022, 00:09:24,    156,    0.0,   12.7,   0.00,   0.00, 1014.7,   69.1, -999.0
15-06-2022, 00:09:33,    156,    0.0,   12.6,   0.00,   0.00, 1014.8,   69.1, -999.0
15-06-2022, 00:09:43,    156,    0.0,   12.7,   0.00,   0.00, 1014.8,   69.2, -999.0
15-06-2022, 00:09:54,    156,    0.0,   12.7,   0.00,   0.00, 1014.7,   69.2, -999.0
15-06-2022, 00:10:03,    156,    0.0,   12.7,   0.00,   0.00, 1014.8,   69.2, -999.0
15-06-2022, 00:10:13,    156,    0.0,   12.7,   0.00,   0.00, 1014.8,   69.2, -999.0
15-06-2022, 00:10:23,    162,    0.0,   12.8,   0.00,   0.00, 1014.8,   69.4, -999.0
15-06-2022, 00:10:33,    163,    0.0,   12.8,   0.00,   0.00, 1014.8,   69.3, -999.0
15-06-2022, 00:10:43,    162,    0.0,   12.7,   0.00,   0.00, 1014.7,   69.2, -999.0
15-06-2022, 00:10:53,    161,    0.0,   12.8,   0.00,   0.00, 1014.8,   69.1, -999.0
15-06-2022, 00:11:03,    161,    0.0,   12.7,   0.00,   0.00, 1014.8,   69.2, -999.0
15-06-2022, 00:11:13,    162,    0.0,   12.7,   0.00,   0.00, 1014.8,   69.2, -999.0
15-06-2022, 00:11:23,    143,    0.0,   12.6,   0.00,   0.00, 1014.8,   69.1, -999.0
15-06-2022, 00:11:33,    142,    0.0,   12.7,   0.00,   0.00, 1014.8,   69.3, -999.0
15-06-2022, 00:11:43,    141,    0.0,   12.6,   0.00,   0.00, 1014.8,   69.2, -999.0
15-06-2022, 00:11:53,    142,    0.0,   12.7,   0.00,   0.00, 1014.7,   69.3, -999.0
15-06-2022, 00:12:03,    142,    0.0,   12.5,   0.00,   0.00, 1014.7,   69.3, -999.0
15-06-2022, 00:12:13,    142,    0.0,   12.6,   0.00,   0.00, 1014.8,   69.3, -999.0
15-06-2022, 00:12:23,    141,    0.0,   12.6,   0.00,   0.00, 1014.8,   69.4, -999.0
15-06-2022, 00:12:33,    141,    0.0,   12.6,   0.00,   0.00, 1014.8,   69.4, -999.0
15-06-2022, 00:12:42,    141,    0.0,   12.6,   0.00,   0.00, 1014.8,   69.4, -999.0
15-06-2022, 00:12:52,    141,    0.0,   12.6,   0.00,   0.00, 1014.7,   69.4, -999.0
15-06-2022, 00:13:03,    141,    0.0,   12.5,   0.00,   0.00, 1014.8,   69.5, -999.0
15-06-2022, 00:13:12,    141,    0.0,   12.6,   0.00,   0.00, 1014.7,   69.5, -999.0
15-06-2022, 00:13:22,    141,    0.0,   12.5,   0.00,   0.00, 1014.8,   69.4, -999.0
15-06-2022, 00:13:33,    141,    0.0,   12.5,   0.00,   0.00, 1014.8,   69.6, -999.0
15-06-2022, 00:13:42,    141,    0.0,   12.5,   0.00,   0.00, 1014.7,   69.5, -999.0
15-06-2022, 00:13:52,    141,    0.0,   12.6,   0.00,   0.00, 1014.7,   69.5, -999.0
15-06-2022, 00:14:02,    141,    0.0,   12.6,   0.00,   0.00, 1014.7,   69.5, -999.0
15-06-2022, 00:14:12,    141,    0.0,   12.6,   0.00,   0.00, 1014.7,   69.6, -999.0
15-06-2022, 00:14:22,    141,    0.0,   12.6,   0.00,   0.00, 1014.8,   69.6, -999.0
15-06-2022, 00:14:32,    141,    0.0,   12.5,   0.00,   0.00, 1014.7,   69.7, -999.0
15-06-2022, 00:14:42,    141,    0.0,   12.6,   0.00,   0.00, 1014.7,   69.5, -999.0
15-06-2022, 00:14:52,    141,    0.0,   12.5,   0.00,   0.00, 1014.7,   69.5, -999.0
15-06-2022, 00:15:02,    140,    0.0,   12.5,   0.00,   0.00, 1014.7,   69.4, -999.0
15-06-2022, 00:15:12,    141,    0.0,   12.7,   0.00,   0.00, 1014.7,   69.2, -999.0
15-06-2022, 00:15:22,    141,    0.0,   12.6,   0.00,   0.00, 1014.7,   69.4, -999.0
15-06-2022, 00:15:32,    141,    0.0,   12.5,   0.00,   0.00, 1014.8,   69.5, -999.0
15-06-2022, 00:15:42,    141,    0.0,   12.5,   0.00,   0.00, 1014.7,   69.6, -999.0
15-06-2022, 00:15:51,    141,    0.0,   12.5,   0.00,   0.00, 1014.7,   69.6, -999.0
15-06-2022, 00:16:02,    141,    0.0,   12.5,   0.00,   0.00, 1014.8,   69.6, -999.0
15-06-2022, 00:16:12,    141,    0.0,   12.4,   0.00,   0.00, 1014.7,   69.7, -999.0
15-06-2022, 00:16:21,    141,    0.0,   12.5,   0.00,   0.00, 1014.7,   69.7, -999.0
15-06-2022, 00:16:31,    141,    0.0,   12.5,   0.00,   0.00, 1014.8,   69.8, -999.0
15-06-2022, 00:16:42,    141,    0.0,   12.5,   0.00,   0.00, 1014.7,   69.8, -999.0
15-06-2022, 00:16:51,    141,    0.0,   12.4,   0.00,   0.00, 1014.7,   69.8, -999.0
15-06-2022, 00:17:01,    141,    0.0,   12.5,   0.00,   0.00, 1014.7,   69.7, -999.0
15-06-2022, 00:17:11,    141,    0.0,   12.5,   0.00,   0.00, 1014.7,   69.8, -999.0
15-06-2022, 00:17:21,    141,    0.0,   12.3,   0.00,   0.00, 1014.7,   69.9, -999.0
15-06-2022, 00:17:31,    141,    0.0,   12.5,   0.00,   0.00, 1014.8,   70.0, -999.0
15-06-2022, 00:17:41,    141,    0.0,   12.5,   0.00,   0.00, 1014.7,   70.1, -999.0
15-06-2022, 00:17:51,    141,    0.0,   12.5,   0.00,   0.00, 1014.7,   69.9, -999.0
15-06-2022, 00:18:01,    141,    0.0,   12.5,   0.00,   0.00, 1014.7,   69.9, -999.0
15-06-2022, 00:18:11,    141,    0.0,   12.4,   0.00,   0.00, 1014.7,   69.9, -999.0
15-06-2022, 00:18:21,    141,    0.0,   12.5,   0.00,   0.00, 1014.8,   69.7, -999.0
15-06-2022, 00:18:30,    141,    0.0,   12.5,   0.00,   0.00, 1014.7,   69.7, -999.0
15-06-2022, 00:18:41,    141,    0.0,   12.5,   0.00,   0.00, 1014.7,   69.9, -999.0
15-06-2022, 00:18:51,    141,    0.0,   12.5,   0.00,   0.00, 1014.7,   70.0, -999.0
15-06-2022, 00:19:00,    141,    0.0,   12.5,   0.00,   0.00, 1014.7,   70.0, -999.0
15-06-2022, 00:19:11,    141,    0.0,   12.4,   0.00,   0.00, 1014.7,   70.1, -999.0
15-06-2022, 00:19:21,    141,    0.0,   12.5,   0.00,   0.00, 1014.7,   70.0, -999.0
15-06-2022, 00:19:30,    141,    0.0,   12.5,   0.00,   0.00, 1014.7,   70.0, -999.0
15-06-2022, 00:19:40,    141,    0.0,   12.5,   0.00,   0.00, 1014.7,   70.1, -999.0
15-06-2022, 00:19:51,    140,    0.0,   12.4,   0.00,   0.00, 1014.7,   70.0, -999.0
15-06-2022, 00:20:00,    141,    0.0,   12.4,   0.00,   0.00, 1014.7,   70.2, -999.0
15-06-2022, 00:20:10,    141,    0.0,   12.3,   0.00,   0.00, 1014.8,   70.0, -999.0
15-06-2022, 00:20:20,    141,    0.0,   12.4,   0.00,   0.00, 1014.8,   70.1, -999.0
15-06-2022, 00:20:30,    141,    0.0,   12.3,   0.00,   0.00, 1014.8,   70.1, -999.0
15-06-2022, 00:20:40,    141,    0.0,   12.4,   0.00,   0.00, 1014.8,   70.3, -999.0
15-06-2022, 00:20:50,    141,    0.0,   12.3,   0.00,   0.00, 1014.8,   70.3, -999.0
15-06-2022, 00:21:00,    141,    0.0,   12.4,   0.00,   0.00, 1014.8,   70.3, -999.0
15-06-2022, 00:21:10,    141,    0.0,   12.4,   0.00,   0.00, 1014.8,   70.4, -999.0
15-06-2022, 00:21:20,    141,    0.0,   12.4,   0.00,   0.00, 1014.8,   70.4, -999.0
15-06-2022, 00:21:30,    141,    0.0,   12.4,   0.00,   0.00, 1014.7,   70.5, -999.0
15-06-2022, 00:21:40,    141,    0.0,   12.3,   0.00,   0.00, 1014.8,   70.4, -999.0
15-06-2022, 00:21:50,    141,    0.0,   12.4,   0.00,   0.00, 1014.8,   70.4, -999.0
15-06-2022, 00:22:00,    141,    0.0,   12.3,   0.00,   0.00, 1014.7,   70.4, -999.0
15-06-2022, 00:22:09,    141,    0.0,   12.3,   0.00,   0.00, 1014.7,   70.5, -999.0
15-06-2022, 00:22:20,    141,    0.0,   12.3,   0.00,   0.00, 1014.8,   70.4, -999.0
15-06-2022, 00:22:30,    141,    0.0,   12.3,   0.00,   0.00, 1014.8,   70.4, -999.0
15-06-2022, 00:22:39,    141,    0.0,   12.3,   0.00,   0.00, 1014.8,   70.7, -999.0
15-06-2022, 00:22:49,    141,    0.0,   12.3,   0.00,   0.00, 1014.8,   70.7, -999.0
15-06-2022, 00:23:00,    141,    0.0,   12.3,   0.00,   0.00, 1014.7,   70.6, -999.0
15-06-2022, 00:23:09,    141,    0.0,   12.4,   0.00,   0.00, 1014.8,   70.7, -999.0
15-06-2022, 00:23:19,    141,    0.0,   12.4,   0.00,   0.00, 1014.8,   70.7, -999.0
15-06-2022, 00:23:29,    141,    0.0,   12.4,   0.00,   0.00, 1014.8,   70.8, -999.0
15-06-2022, 00:23:39,    141,    0.0,   12.3,   0.00,   0.00, 1014.8,   70.7, -999.0
15-06-2022, 00:23:49,    141,    0.0,   12.3,   0.00,   0.00, 1014.8,   70.6, -999.0
15-06-2022, 00:23:59,    141,    0.0,   12.3,   0.00,   0.00, 1014.7,   70.7, -999.0
15-06-2022, 00:24:09,    141,    0.0,   12.4,   0.00,   0.00, 1014.7,   70.8, -999.0
15-06-2022, 00:24:19,    141,    0.0,   12.3,   0.00,   0.00, 1014.7,   70.8, -999.0
15-06-2022, 00:24:29,    141,    0.0,   12.3,   0.00,   0.00, 1014.8,   70.8, -999.0
15-06-2022, 00:24:39,    141,    0.0,   12.3,   0.00,   0.00, 1014.8,   70.7, -999.0
15-06-2022, 00:24:49,    141,    0.0,   12.3,   0.00,   0.00, 1014.7,   70.7, -999.0
15-06-2022, 00:24:59,    141,    0.0,   12.3,   0.00,   0.00, 1014.8,   70.9, -999.0
15-06-2022, 00:25:09,    141,    0.0,   12.3,   0.00,   0.00, 1014.7,   70.8, -999.0
15-06-2022, 00:25:18,    141,    0.0,   12.3,   0.00,   0.00, 1014.7,   70.8, -999.0
15-06-2022, 00:25:29,    141,    0.0,   12.3,   0.00,   0.00, 1014.8,   70.8, -999.0
15-06-2022, 00:25:39,    141,    0.0,   12.3,   0.00,   0.00, 1014.8,   70.7, -999.0
15-06-2022, 00:25:48,    141,    0.0,   12.2,   0.00,   0.00, 1014.8,   70.7, -999.0
15-06-2022, 00:25:58,    154,    0.0,   12.3,   0.00,   0.00, 1014.8,   70.7, -999.0
15-06-2022, 00:26:09,    154,    0.0,   12.3,   0.00,   0.00, 1014.7,   71.0, -999.0
15-06-2022, 00:26:18,    156,    0.0,   12.2,   0.00,   0.00, 1014.8,   71.0, -999.0
15-06-2022, 00:26:28,    157,    0.0,   12.3,   0.00,   0.00, 1014.8,   71.0, -999.0
15-06-2022, 00:26:38,    156,    0.0,   12.3,   0.00,   0.00, 1014.8,   71.0, -999.0
15-06-2022, 00:26:48,    157,    0.0,   12.2,   0.00,   0.00, 1014.8,   71.1, -999.0
15-06-2022, 00:26:58,    156,    0.0,   12.2,   0.00,   0.00, 1014.8,   71.1, -999.0
15-06-2022, 00:27:08,    156,    0.0,   12.2,   0.00,   0.00, 1014.8,   71.1, -999.0
15-06-2022, 00:27:18,    159,    0.0,   12.3,   0.00,   0.00, 1014.8,   71.2, -999.0
15-06-2022, 00:27:28,    156,    0.0,   12.4,   0.00,   0.00, 1014.8,   71.3, -999.0
15-06-2022, 00:27:38,    156,    0.0,   12.2,   0.00,   0.00, 1014.7,   71.4, -999.0
15-06-2022, 00:27:48,    156,    0.0,   12.3,   0.00,   0.00, 1014.8,   71.3, -999.0
15-06-2022, 00:27:58,    156,    0.0,   12.2,   0.00,   0.00, 1014.8,   71.4, -999.0
15-06-2022, 00:28:08,    156,    0.0,   12.3,   0.00,   0.00, 1014.8,   71.3, -999.0
15-06-2022, 00:28:18,    156,    0.0,   12.2,   0.00,   0.00, 1014.8,   71.4, -999.0
15-06-2022, 00:28:27,    156,    0.0,   12.2,   0.00,   0.00, 1014.8,   71.4, -999.0
15-06-2022, 00:28:38,    156,    0.0,   12.2,   0.00,   0.00, 1014.8,   71.4, -999.0
15-06-2022, 00:28:48,    156,    0.0,   12.2,   0.00,   0.00, 1014.8,   71.3, -999.0
15-06-2022, 00:28:57,    157,    0.0,   12.2,   0.00,   0.00, 1014.8,   71.1, -999.0
15-06-2022, 00:29:07,    158,    0.0,   12.3,   0.00,   0.00, 1014.8,   71.3, -999.0
15-06-2022, 00:29:18,    158,    0.0,   12.3,   0.00,   0.00, 1014.8,   71.1, -999.0
15-06-2022, 00:29:27,    158,    0.0,   12.2,   0.00,   0.00, 1014.8,   71.2, -999.0
15-06-2022, 00:29:37,    158,    0.0,   12.2,   0.00,   0.00, 1014.8,   71.3, -999.0
15-06-2022, 00:29:48,    158,    0.0,   12.2,   0.00,   0.00, 1014.8,   71.2, -999.0
15-06-2022, 00:29:57,    158,    0.0,   12.2,   0.00,   0.00, 1014.8,   71.5, -999.0
15-06-2022, 00:30:07,    158,    0.0,   12.2,   0.00,   0.00, 1014.8,   71.4, -999.0
15-06-2022, 00:30:17,    158,    0.0,   12.2,   0.00,   0.00, 1014.8,   71.4, -999.0
15-06-2022, 00:30:27,    159,    0.0,   12.2,   0.00,   0.00, 1014.8,   71.6, -999.0
15-06-2022, 00:30:37,    158,    0.0,   12.1,   0.00,   0.00, 1014.8,   71.5, -999.0
15-06-2022, 00:30:47,    159,    0.0,   12.1,   0.00,   0.00, 1014.8,   71.5, -999.0
15-06-2022, 00:30:57,    159,    0.0,   12.2,   0.00,   0.00, 1014.8,   71.5, -999.0
15-06-2022, 00:31:07,    159,    0.0,   12.1,   0.00,   0.00, 1014.8,   71.5, -999.0
15-06-2022, 00:31:17,    158,    0.0,   12.1,   0.00,   0.00, 1014.8,   71.5, -999.0
15-06-2022, 00:31:27,    158,    0.0,   12.1,   0.00,   0.00, 1014.8,   71.5, -999.0
15-06-2022, 00:31:36,    159,    0.0,   12.2,   0.00,   0.00, 1014.8,   71.5, -999.0
15-06-2022, 00:31:47,    159,    0.0,   12.2,   0.00,   0.00, 1014.8,   71.6, -999.0
15-06-2022, 00:31:57,    158,    0.0,   12.1,   0.00,   0.00, 1014.7,   71.5, -999.0
15-06-2022, 00:32:06,    159,    0.0,   12.2,   0.00,   0.00, 1014.8,   71.5, -999.0
15-06-2022, 00:32:17,    159,    0.0,   12.2,   0.00,   0.00, 1014.8,   71.5, -999.0
15-06-2022, 00:32:27,    159,    0.0,   12.1,   0.00,   0.00, 1014.8,   71.6, -999.0
15-06-2022, 00:32:36,    158,    0.0,   12.1,   0.00,   0.00, 1014.8,   71.6, -999.0
15-06-2022, 00:32:46,    159,    0.0,   12.1,   0.00,   0.00, 1014.8,   71.7, -999.0
15-06-2022, 00:32:56,    163,    0.0,   12.1,   0.00,   0.00, 1014.7,   71.7, -999.0
15-06-2022, 00:33:06,    164,    0.0,   12.1,   0.00,   0.00, 1014.7,   71.6, -999.0
15-06-2022, 00:33:16,    163,    0.0,   12.0,   0.00,   0.00, 1014.8,   71.5, -999.0
15-06-2022, 00:33:26,    163,    0.0,   12.1,   0.00,   0.00, 1014.7,   71.6, -999.0
15-06-2022, 00:33:36,    163,    0.0,   12.1,   0.00,   0.00, 1014.8,   71.7, -999.0
15-06-2022, 00:33:46,    163,    0.0,   12.1,   0.00,   0.00, 1014.8,   71.6, -999.0
15-06-2022, 00:33:56,    163,    0.0,   12.0,   0.00,   0.00, 1014.7,   71.7, -999.0
15-06-2022, 00:34:06,    163,    0.0,   12.0,   0.00,   0.00, 1014.7,   71.6, -999.0
15-06-2022, 00:34:16,    163,    0.0,   12.0,   0.00,   0.00, 1014.8,   71.7, -999.0
15-06-2022, 00:34:26,    163,    0.0,   12.1,   0.00,   0.00, 1014.7,   71.7, -999.0
15-06-2022, 00:34:36,    163,    0.0,   12.1,   0.00,   0.00, 1014.7,   71.8, -999.0
15-06-2022, 00:34:45,    163,    0.0,   12.1,   0.00,   0.00, 1014.8,   72.0, -999.0
15-06-2022, 00:34:56,    162,    0.0,   12.0,   0.00,   0.00, 1014.7,   71.9, -999.0
15-06-2022, 00:35:06,    163,    0.0,   12.1,   0.00,   0.00, 1014.7,   71.9, -999.0
15-06-2022, 00:35:15,    162,    0.0,   12.0,   0.00,   0.00, 1014.8,   72.0, -999.0
15-06-2022, 00:35:26,    162,    0.0,   12.0,   0.00,   0.00, 1014.7,   72.0, -999.0
15-06-2022, 00:35:36,    163,    0.0,   11.9,   0.00,   0.00, 1014.8,   71.9, -999.0
15-06-2022, 00:35:45,    163,    0.0,   12.1,   0.00,   0.00, 1014.7,   72.0, -999.0
15-06-2022, 00:35:55,    163,    0.0,   12.0,   0.00,   0.00, 1014.7,   72.1, -999.0
15-06-2022, 00:36:05,    163,    0.0,   12.1,   0.00,   0.00, 1014.7,   72.0, -999.0
15-06-2022, 00:36:15,    163,    0.0,   12.0,   0.00,   0.00, 1014.7,   72.0, -999.0
15-06-2022, 00:36:25,    163,    0.0,   12.0,   0.00,   0.00, 1014.7,   72.1, -999.0
15-06-2022, 00:36:35,    163,    0.0,   12.1,   0.00,   0.00, 1014.7,   72.1, -999.0
15-06-2022, 00:36:45,    163,    0.0,   12.0,   0.00,   0.00, 1014.7,   72.0, -999.0
15-06-2022, 00:36:55,    163,    0.0,   12.0,   0.00,   0.00, 1014.7,   72.0, -999.0
15-06-2022, 00:37:05,    163,    0.0,   12.1,   0.00,   0.00, 1014.7,   72.0, -999.0
15-06-2022, 00:37:15,    163,    0.0,   12.0,   0.00,   0.00, 1014.7,   72.1, -999.0
15-06-2022, 00:37:25,    163,    0.0,   12.1,   0.00,   0.00, 1014.7,   72.0, -999.0
15-06-2022, 00:37:35,    163,    0.0,   12.0,   0.00,   0.00, 1014.7,   72.1, -999.0
15-06-2022, 00:37:45,    163,    0.0,   12.0,   0.00,   0.00, 1014.7,   72.1, -999.0
15-06-2022, 00:37:55,    163,    0.0,   12.0,   0.00,   0.00, 1014.7,   72.1, -999.0
15-06-2022, 00:38:05,    161,    0.0,   12.0,   0.00,   0.00, 1014.7,   72.1, -999.0
15-06-2022, 00:38:15,    163,    0.0,   12.0,   0.00,   0.00, 1014.8,   72.0, -999.0
15-06-2022, 00:38:24,    163,    0.0,   12.0,   0.00,   0.00, 1014.7,   72.0, -999.0
15-06-2022, 00:38:35,    163,    0.0,   12.0,   0.00,   0.00, 1014.7,   72.2, -999.0
15-06-2022, 00:38:45,    163,    0.0,   12.0,   0.00,   0.00, 1014.8,   72.2, -999.0
15-06-2022, 00:38:54,    163,    0.0,   12.0,   0.00,   0.00, 1014.8,   72.1, -999.0
15-06-2022, 00:39:04,    163,    0.0,   11.9,   0.00,   0.00, 1014.7,   72.0, -999.0
15-06-2022, 00:39:14,    163,    0.0,   12.0,   0.00,   0.00, 1014.7,   72.2, -999.0
15-06-2022, 00:39:24,    163,    0.0,   12.0,   0.00,   0.00, 1014.8,   72.0, -999.0
15-06-2022, 00:39:34,    163,    0.0,   12.0,   0.00,   0.00, 1014.8,   72.1, -999.0
15-06-2022, 00:39:44,    159,    0.0,   12.0,   0.00,   0.00, 1014.8,   72.1, -999.0
15-06-2022, 00:39:54,    163,    0.0,   12.0,   0.00,   0.00, 1014.8,   72.2, -999.0
15-06-2022, 00:40:04,    163,    0.0,   12.0,   0.00,   0.00, 1014.8,   72.2, -999.0
15-06-2022, 00:40:14,    163,    0.0,   12.0,   0.00,   0.00, 1014.8,   72.3, -999.0
15-06-2022, 00:40:24,    164,    0.0,   12.0,   0.00,   0.00, 1014.8,   72.4, -999.0
15-06-2022, 00:40:34,    163,    0.0,   12.0,   0.00,   0.00, 1014.8,   72.2, -999.0
15-06-2022, 00:40:44,    163,    0.0,   12.0,   0.00,   0.00, 1014.8,   72.2, -999.0
15-06-2022, 00:40:54,    163,    0.0,   12.0,   0.00,   0.00, 1014.8,   72.1, -999.0
15-06-2022, 00:41:04,    163,    0.0,   12.0,   0.00,   0.00, 1014.8,   72.2, -999.0
15-06-2022, 00:41:14,    163,    0.0,   11.9,   0.00,   0.00, 1014.8,   72.4, -999.0
15-06-2022, 00:41:24,    162,    0.0,   12.0,   0.00,   0.00, 1014.8,   72.3, -999.0
15-06-2022, 00:41:33,    163,    0.0,   12.0,   0.00,   0.00, 1014.8,   72.2, -999.0
15-06-2022, 00:41:44,    163,    0.0,   12.0,   0.00,   0.00, 1014.8,   72.3, -999.0
15-06-2022, 00:41:54,    163,    0.0,   12.0,   0.00,   0.00, 1014.8,   72.4, -999.0
15-06-2022, 00:42:03,    163,    0.0,   12.0,   0.00,   0.00, 1014.8,   72.4, -999.0
15-06-2022, 00:42:13,    163,    0.0,   12.1,   0.00,   0.00, 1014.8,   72.5, -999.0
15-06-2022, 00:42:23,    163,    0.0,   12.1,   0.00,   0.00, 1014.8,   72.6, -999.0
15-06-2022, 00:42:33,    163,    0.0,   12.0,   0.00,   0.00, 1014.8,   72.4, -999.0
15-06-2022, 00:42:43,    163,    0.0,   12.0,   0.00,   0.00, 1014.8,   72.3, -999.0
15-06-2022, 00:42:53,    163,    0.0,   12.1,   0.00,   0.00, 1014.8,   72.3, -999.0
15-06-2022, 00:43:03,    162,    0.0,   12.0,   0.00,   0.00, 1014.8,   72.4, -999.0
15-06-2022, 00:43:13,    163,    0.0,   12.1,   0.00,   0.00, 1014.8,   72.5, -999.0
15-06-2022, 00:43:23,    163,    0.0,   12.2,   0.00,   0.00, 1014.8,   72.4, -999.0
15-06-2022, 00:43:33,    163,    0.0,   12.1,   0.00,   0.00, 1014.8,   72.5, -999.0
15-06-2022, 00:43:43,    163,    0.0,   12.1,   0.00,   0.00, 1014.8,   72.4, -999.0
15-06-2022, 00:43:53,    163,    0.0,   12.1,   0.00,   0.00, 1014.8,   72.3, -999.0
15-06-2022, 00:44:03,    163,    0.0,   12.1,   0.00,   0.00, 1014.8,   72.2, -999.0
15-06-2022, 00:44:13,    163,    0.0,   12.1,   0.00,   0.00, 1014.8,   72.3, -999.0
15-06-2022, 00:44:23,    163,    0.0,   12.1,   0.00,   0.00, 1014.8,   72.2, -999.0
15-06-2022, 00:44:33,    163,    0.0,   12.1,   0.00,   0.00, 1014.8,   72.1, -999.0
15-06-2022, 00:44:42,    162,    0.0,   12.0,   0.00,   0.00, 1014.8,   72.2, -999.0
15-06-2022, 00:44:53,    163,    0.0,   12.0,   0.00,   0.00, 1014.8,   72.2, -999.0
15-06-2022, 00:45:03,    163,    0.0,   12.0,   0.00,   0.00, 1014.9,   72.2, -999.0
15-06-2022, 00:45:12,    163,    0.0,   12.1,   0.00,   0.00, 1014.8,   72.2, -999.0
15-06-2022, 00:45:22,    163,    0.0,   12.1,   0.00,   0.00, 1014.8,   72.3, -999.0
15-06-2022, 00:45:32,    163,    0.0,   12.1,   0.00,   0.00, 1014.8,   72.2, -999.0
15-06-2022, 00:45:42,    163,    0.0,   12.1,   0.00,   0.00, 1014.8,   72.2, -999.0
15-06-2022, 00:45:52,    163,    0.0,   12.0,   0.00,   0.00, 1014.8,   72.2, -999.0
15-06-2022, 00:46:02,    163,    0.0,   12.0,   0.00,   0.00, 1014.8,   72.2, -999.0
15-06-2022, 00:46:12,    163,    0.0,   12.0,   0.00,   0.00, 1014.8,   72.2, -999.0
15-06-2022, 00:46:22,    163,    0.0,   12.0,   0.00,   0.00, 1014.8,   72.4, -999.0
15-06-2022, 00:46:32,    163,    0.0,   12.1,   0.00,   0.00, 1014.8,   72.5, -999.0
15-06-2022, 00:46:42,    163,    0.0,   12.1,   0.00,   0.00, 1014.8,   72.4, -999.0